Location: Chinatown
(37.7966°N, 122.4086°W)
Time: 17:05:13
(UTC+00:00)

Okean 1-7 - Pass Details

Date: 03 August 2024
Orbit: 578 x 600 km, 82.5° (Epoch: 07 September)

Event Time Altitude Azimuth Distance (km) Brightness Sun altitude
Rises 12:03:34 0° 336° (NNW) 2,821 6.6 -13.3°
Reaches altitude 10° 12:06:10 10° 321° (NW) 1,920 5.5 -12.8°
Maximum altitude 12:09:22 21° 272° (W) 1,339 4.3 -12.3°
Enters shadow 12:10:50 18° 244° (WSW) 1,482 4.4 -12.1°
